Time,TemperatureF,DewpointF,PressureIn,WindDirection,WindDirectionDegrees,WindSpeedMPH,WindSpeedGustMPH,Humidity,HourlyPrecipIn,Conditions,Clouds,dailyrainin,SoftwareType,DateUTC
2013-11-22 08:53:00,59.4,-41.5,29.93,NE,45,2.0,2.0,1,0.00,,,0.00,Weather View 32 v70,2013-11-22 13:53:00,
2013-11-22 08:54:00,59.4,-41.5,29.93,NE,45,2.0,2.0,1,0.00,,,0.00,Weather View 32 v70,2013-11-22 13:54:00,
2013-11-22 08:59:00,59.5,-41.4,29.93,North,360,2.0,6.0,1,0.00,,,0.00,Weather View 32 v70,2013-11-22 13:59:00,
2013-11-22 09:04:00,59.4,-41.5,29.93,North,360,3.0,6.0,1,0.00,,,0.00,Weather View 32 v70,2013-11-22 14:04:00,
2013-11-22 09:09:00,59.7,-41.3,29.93,NE,45,4.0,6.0,1,0.00,,,0.00,Weather View 32 v70,2013-11-22 14:09:00,
2013-11-22 09:14:00,59.9,-41.1,29.93,NNW,337,3.0,6.0,1,0.00,,,0.00,Weather View 32 v70,2013-11-22 14:14:00,
2013-11-22 09:19:00,59.9,-41.1,29.93,NNE,22,2.0,6.0,1,0.00,,,0.00,Weather View 32 v70,2013-11-22 14:19:00,
2013-11-22 09:24:00,59.6,-41.3,29.93,ENE,67,4.0,6.0,1,0.00,,,0.00,Weather View 32 v70,2013-11-22 14:24:00,
2013-11-22 09:29:00,59.4,-41.5,29.93,ENE,67,4.0,6.0,1,0.00,,,0.00,Weather View 32 v70,2013-11-22 14:29:00,
2013-11-22 09:34:00,59.6,-41.3,29.93,NNE,22,5.0,6.0,1,0.00,,,0.00,Weather View 32 v70,2013-11-22 14:34:00,
2013-11-22 09:39:00,60.2,-41.0,29.93,NNE,22,2.0,6.0,1,0.00,,,0.00,Weather View 32 v70,2013-11-22 14:39:00,
2013-11-22 09:44:00,59.9,-41.1,29.93,North,360,4.0,6.0,1,0.00,,,0.00,Weather View 32 v70,2013-11-22 14:44:00,
2013-11-22 09:49:00,60.2,-41.0,29.94,NNE,22,4.0,6.0,1,0.00,,,0.00,Weather View 32 v70,2013-11-22 14:49:00,
2013-11-22 09:54:00,60.5,-40.8,29.94,North,360,4.0,6.0,1,0.00,,,0.00,Weather View 32 v70,2013-11-22 14:54:00,
2013-11-22 09:59:00,61.0,-40.5,29.94,NNW,337,2.0,6.0,1,0.00,,,0.00,Weather View 32 v70,2013-11-22 14:59:00,
2013-11-22 10:04:00,61.8,-40.0,29.94,NE,45,5.0,6.0,1,0.00,,,0.00,Weather View 32 v70,2013-11-22 15:04:00,
2013-11-22 10:09:00,61.9,-39.9,29.94,NE,45,3.0,6.0,1,0.00,,,0.00,Weather View 32 v70,2013-11-22 15:09:00,
2013-11-22 10:14:00,62.0,-39.9,29.94,ENE,67,2.0,6.0,1,0.00,,,0.00,Weather View 32 v70,2013-11-22 15:14:00,
2013-11-22 10:19:00,62.1,-39.8,29.94,ENE,67,5.0,6.0,1,0.00,,,0.00,Weather View 32 v70,2013-11-22 15:19:00,
2013-11-22 10:25:00,62.1,-39.8,29.94,North,360,1.0,6.0,1,0.00,,,0.00,Weather View 32 v70,2013-11-22 15:25:00,
2013-11-22 10:30:00,62.5,-39.6,29.93,NE,45,0.0,6.0,1,0.00,,,0.00,Weather View 32 v70,2013-11-22 15:30:00,
2013-11-22 10:35:00,63.7,-38.8,29.93,NNW,337,1.0,6.0,1,0.00,,,0.00,Weather View 32 v70,2013-11-22 15:35:00,
2013-11-22 10:40:00,64.0,-38.7,29.93,NW,315,2.0,6.0,1,0.00,,,0.00,Weather View 32 v70,2013-11-22 15:40:00,
2013-11-22 10:45:00,64.9,-38.1,29.93,NW,315,0.0,5.0,1,0.00,,,0.00,Weather View 32 v70,2013-11-22 15:45:00,
2013-11-22 10:50:00,65.3,-37.9,29.93,SE,135,0.0,5.0,1,0.00,,,0.00,Weather View 32 v70,2013-11-22 15:50:00,
2013-11-22 10:55:00,66.2,-37.3,29.92,SE,135,1.0,5.0,1,0.00,,,0.00,Weather View 32 v70,2013-11-22 15:55:00,
2013-11-22 11:00:00,67.1,-36.8,29.92,SE,135,3.0,5.0,1,0.00,,,0.00,Weather View 32 v70,2013-11-22 16:00:00,
2013-11-22 11:05:00,67.6,-36.5,29.92,South,180,0.0,5.0,1,0.00,,,0.00,Weather View 32 v70,2013-11-22 16:05:00,
2013-11-22 11:10:00,68.7,-35.8,29.91,South,180,0.0,5.0,1,0.00,,,0.00,Weather View 32 v70,2013-11-22 16:10:00,
2013-11-22 11:15:00,69.5,-35.4,29.91,East,90,1.0,5.0,1,0.00,,,0.00,Weather View 32 v70,2013-11-22 16:15:00,
2013-11-22 11:20:00,70.1,-35.0,29.91,SE,135,0.0,5.0,1,0.00,,,0.00,Weather View 32 v70,2013-11-22 16:20:00,
2013-11-22 11:25:00,69.8,-35.2,29.91,WSW,247,6.0,6.0,1,0.00,,,0.00,Weather View 32 v70,2013-11-22 16:25:00,
2013-11-22 11:30:00,69.4,-35.4,29.91,WSW,247,2.0,6.0,1,0.00,,,0.00,Weather View 32 v70,2013-11-22 16:30:00,
2013-11-22 11:35:00,70.4,-34.8,29.90,SSW,202,1.0,6.0,1,0.00,,,0.00,Weather View 32 v70,2013-11-22 16:35:00,
2013-11-22 11:40:00,70.6,-34.7,29.90,SE,135,4.0,8.0,1,0.00,,,0.00,Weather View 32 v70,2013-11-22 16:40:00,
2013-11-22 11:45:00,70.7,-34.6,29.89,SE,135,7.0,11.0,1,0.00,,,0.00,Weather View 32 v70,2013-11-22 16:45:00,
2013-11-22 11:50:00,70.4,-34.8,29.89,SSW,202,4.0,11.0,1,0.00,,,0.00,Weather View 32 v70,2013-11-22 16:50:00,
2013-11-22 11:55:00,70.5,-34.8,29.89,South,180,6.0,11.0,1,0.00,,,0.00,Weather View 32 v70,2013-11-22 16:55:00,
2013-11-22 12:00:00,70.9,-34.5,29.89,SE,135,6.0,11.0,1,0.00,,,0.00,Weather View 32 v70,2013-11-22 17:00:00,
2013-11-22 12:05:00,71.4,-34.2,29.89,SW,225,7.0,11.0,1,0.00,,,0.00,Weather View 32 v70,2013-11-22 17:05:00,
2013-11-22 12:10:00,71.9,-33.9,29.89,WSW,247,6.0,11.0,1,0.00,,,0.00,Weather View 32 v70,2013-11-22 17:10:00,
2013-11-22 12:15:00,72.1,-33.8,29.88,SSW,202,7.0,12.0,1,0.00,,,0.00,Weather View 32 v70,2013-11-22 17:15:00,
2013-11-22 12:20:00,71.8,-34.0,29.87,SW,225,5.0,12.0,1,0.00,,,0.00,Weather View 32 v70,2013-11-22 17:20:00,
2013-11-22 12:25:00,71.9,-33.9,29.87,South,180,7.0,12.0,1,0.00,,,0.00,Weather View 32 v70,2013-11-22 17:25:00,
2013-11-22 12:30:00,71.3,-34.3,29.87,South,180,6.0,12.0,1,0.00,,,0.00,Weather View 32 v70,2013-11-22 17:30:00,
2013-11-22 12:35:00,72.4,-33.6,29.87,SW,225,11.0,12.0,1,0.00,,,0.00,Weather View 32 v70,2013-11-22 17:35:00,
2013-11-22 12:40:00,72.5,-33.6,29.87,SSW,202,9.0,12.0,1,0.00,,,0.00,Weather View 32 v70,2013-11-22 17:40:00,
2013-11-22 12:45:00,72.0,-33.9,29.87,SSW,202,4.0,13.0,1,0.00,,,0.00,Weather View 32 v70,2013-11-22 17:45:00,
2013-11-22 12:50:00,72.5,-33.6,29.87,SSW,202,4.0,13.0,1,0.00,,,0.00,Weather View 32 v70,2013-11-22 17:50:00,
2013-11-22 12:55:00,72.7,-33.4,29.87,SSE,157,4.0,13.0,1,0.00,,,0.00,Weather View 32 v70,2013-11-22 17:55:00,
2013-11-22 13:00:00,72.7,-33.4,29.87,SSW,202,6.0,13.0,1,0.00,,,0.00,Weather View 32 v70,2013-11-22 18:00:00,
2013-11-22 13:05:00,72.3,-33.7,29.87,SW,225,9.0,13.0,1,0.00,,,0.00,Weather View 32 v70,2013-11-22 18:05:00,
2013-11-22 13:10:00,72.5,-33.6,29.87,WSW,247,5.0,13.0,1,0.00,,,0.00,Weather View 32 v70,2013-11-22 18:10:00,
2013-11-22 13:15:00,72.7,-33.4,29.86,SW,225,4.0,13.0,1,0.00,,,0.00,Weather View 32 v70,2013-11-22 18:15:00,
2013-11-22 13:20:00,73.2,-33.1,29.86,WSW,247,6.0,13.0,1,0.00,,,0.00,Weather View 32 v70,2013-11-22 18:20:00,
2013-11-22 13:25:00,73.4,-33.0,29.86,South,180,7.0,13.0,1,0.00,,,0.00,Weather View 32 v70,2013-11-22 18:25:00,
2013-11-22 13:30:00,72.9,-33.3,29.86,SSW,202,4.0,13.0,1,0.00,,,0.00,Weather View 32 v70,2013-11-22 18:30:00,
2013-11-22 13:35:00,73.1,-33.2,29.85,SSW,202,7.0,13.0,1,0.00,,,0.00,Weather View 32 v70,2013-11-22 18:35:00,
2013-11-22 13:40:00,72.5,-33.6,29.85,SSW,202,8.0,13.0,1,0.00,,,0.00,Weather View 32 v70,2013-11-22 18:40:00,
2013-11-22 13:45:00,73.0,-33.3,29.85,SW,225,2.0,11.0,1,0.00,,,0.00,Weather View 32 v70,2013-11-22 18:45:00,
2013-11-22 13:50:00,73.3,-33.1,29.85,WSW,247,4.0,11.0,1,0.00,,,0.00,Weather View 32 v70,2013-11-22 18:50:00,
2013-11-22 13:55:00,73.4,-33.0,29.85,SSW,202,4.0,11.0,1,0.00,,,0.00,Weather View 32 v70,2013-11-22 18:55:00,
2013-11-22 14:00:00,74.0,-32.7,29.85,SW,225,3.0,11.0,1,0.00,,,0.00,Weather View 32 v70,2013-11-22 19:00:00,
2013-11-22 14:05:00,73.9,-32.7,29.85,SSW,202,5.0,11.0,1,0.00,,,0.00,Weather View 32 v70,2013-11-22 19:05:00,
2013-11-22 14:10:00,75.0,-32.1,29.84,WSW,247,9.0,11.0,1,0.00,,,0.00,Weather View 32 v70,2013-11-22 19:10:00,
2013-11-22 14:15:00,74.7,-32.2,29.84,SSW,202,5.0,13.0,1,0.00,,,0.00,Weather View 32 v70,2013-11-22 19:15:00,
2013-11-22 14:20:00,74.6,-32.3,29.84,South,180,6.0,13.0,1,0.00,,,0.00,Weather View 32 v70,2013-11-22 19:20:00,
2013-11-22 14:25:00,74.2,-32.5,29.84,WSW,247,4.0,13.0,1,0.00,,,0.00,Weather View 32 v70,2013-11-22 19:25:00,
2013-11-22 14:30:00,73.7,-32.8,29.84,WSW,247,2.0,13.0,1,0.00,,,0.00,Weather View 32 v70,2013-11-22 19:30:00,
2013-11-22 14:35:00,73.9,-32.7,29.83,SSW,202,4.0,13.0,1,0.00,,,0.00,Weather View 32 v70,2013-11-22 19:35:00,
2013-11-22 14:40:00,73.8,-32.8,29.83,SW,225,8.0,13.0,1,0.00,,,0.00,Weather View 32 v70,2013-11-22 19:40:00,
2013-11-22 14:45:00,73.9,-32.7,29.83,SW,225,3.0,13.0,1,0.00,,,0.00,Weather View 32 v70,2013-11-22 19:45:00,
2013-11-22 14:50:00,73.9,-32.7,29.83,SW,225,6.0,13.0,1,0.00,,,0.00,Weather View 32 v70,2013-11-22 19:50:00,
2013-11-22 14:55:00,73.7,-32.8,29.83,SSW,202,5.0,13.0,1,0.00,,,0.00,Weather View 32 v70,2013-11-22 19:55:00,
2013-11-22 15:00:00,73.3,-33.1,29.83,SW,225,7.0,13.0,1,0.00,,,0.00,Weather View 32 v70,2013-11-22 20:00:00,
2013-11-22 15:05:00,73.7,-32.8,29.83,WSW,247,5.0,13.0,1,0.00,,,0.00,Weather View 32 v70,2013-11-22 20:05:00,
2013-11-22 15:10:00,73.8,-32.8,29.83,WSW,247,4.0,13.0,1,0.00,,,0.00,Weather View 32 v70,2013-11-22 20:10:00,
2013-11-22 15:15:00,73.6,-32.9,29.83,West,270,6.0,11.0,1,0.00,,,0.00,Weather View 32 v70,2013-11-22 20:15:00,
2013-11-22 15:20:00,73.8,-32.8,29.83,West,270,2.0,11.0,1,0.00,,,0.00,Weather View 32 v70,2013-11-22 20:20:00,
2013-11-22 15:25:00,73.7,-32.8,29.83,West,270,2.0,11.0,1,0.00,,,0.00,Weather View 32 v70,2013-11-22 20:25:00,
2013-11-22 15:30:00,73.7,-32.8,29.83,WSW,247,4.0,11.0,1,0.00,,,0.00,Weather View 32 v70,2013-11-22 20:30:00,
2013-11-22 15:35:00,73.6,-32.9,29.83,SW,225,6.0,11.0,1,0.00,,,0.00,Weather View 32 v70,2013-11-22 20:35:00,
2013-11-22 15:40:00,73.3,-33.1,29.83,SW,225,4.0,11.0,1,0.00,,,0.00,Weather View 32 v70,2013-11-22 20:40:00,
2013-11-22 15:45:00,73.2,-33.1,29.83,SW,225,4.0,11.0,1,0.00,,,0.00,Weather View 32 v70,2013-11-22 20:45:00,
2013-11-22 15:50:00,73.3,-33.1,29.82,SW,225,5.0,11.0,1,0.00,,,0.00,Weather View 32 v70,2013-11-22 20:50:00,
2013-11-22 15:55:00,72.9,-33.3,29.82,WSW,247,7.0,11.0,1,0.00,,,0.00,Weather View 32 v70,2013-11-22 20:55:00,
2013-11-22 16:00:00,73.1,-33.2,29.82,SW,225,2.0,10.0,1,0.00,,,0.00,Weather View 32 v70,2013-11-22 21:00:00,
2013-11-22 16:05:00,73.2,-33.1,29.82,WSW,247,6.0,10.0,1,0.00,,,0.00,Weather View 32 v70,2013-11-22 21:05:00,
2013-11-22 16:10:00,73.2,-33.1,29.82,SW,225,5.0,10.0,1,0.00,,,0.00,Weather View 32 v70,2013-11-22 21:10:00,
2013-11-22 16:15:00,73.3,-33.1,29.82,WSW,247,3.0,10.0,1,0.00,,,0.00,Weather View 32 v70,2013-11-22 21:15:00,
2013-11-22 16:20:00,73.2,-33.1,29.81,SW,225,2.0,10.0,1,0.00,,,0.00,Weather View 32 v70,2013-11-22 21:20:00,
2013-11-22 16:25:00,73.1,-33.2,29.81,SW,225,3.0,8.0,1,0.00,,,0.00,Weather View 32 v70,2013-11-22 21:25:00,
2013-11-22 16:30:00,72.8,-33.4,29.81,SW,225,7.0,8.0,1,0.00,,,0.00,Weather View 32 v70,2013-11-22 21:30:00,
2013-11-22 16:35:00,72.6,-33.5,29.81,WSW,247,6.0,8.0,1,0.00,,,0.00,Weather View 32 v70,2013-11-22 21:35:00,
2013-11-22 16:40:00,72.4,-33.6,29.81,WSW,247,5.0,7.0,1,0.00,,,0.00,Weather View 32 v70,2013-11-22 21:40:00,
2013-11-22 16:45:00,72.2,-33.7,29.81,SW,225,3.0,7.0,1,0.00,,,0.00,Weather View 32 v70,2013-11-22 21:45:00,
2013-11-22 16:50:00,72.1,-33.8,29.81,WSW,247,4.0,7.0,1,0.00,,,0.00,Weather View 32 v70,2013-11-22 21:50:00,
2013-11-22 16:55:00,71.9,-33.9,29.81,SW,225,2.0,7.0,1,0.00,,,0.00,Weather View 32 v70,2013-11-22 21:55:00,
2013-11-22 17:00:00,71.9,-33.9,29.81,WSW,247,6.0,7.0,1,0.00,,,0.00,Weather View 32 v70,2013-11-22 22:00:00,
2013-11-22 17:06:00,71.7,-34.0,29.81,West,270,2.0,7.0,1,0.00,,,0.00,Weather View 32 v70,2013-11-22 22:06:00,
2013-11-22 17:11:00,71.6,-34.1,29.81,West,270,2.0,7.0,1,0.00,,,0.00,Weather View 32 v70,2013-11-22 22:11:00,
2013-11-22 17:16:00,71.3,-34.3,29.81,West,270,3.0,7.0,1,0.00,,,0.00,Weather View 32 v70,2013-11-22 22:16:00,
2013-11-22 17:21:00,71.1,-34.4,29.81,West,270,1.0,7.0,1,0.00,,,0.00,Weather View 32 v70,2013-11-22 22:21:00,
2013-11-22 17:26:00,70.8,-34.6,29.81,West,270,2.0,7.0,1,0.00,,,0.00,Weather View 32 v70,2013-11-22 22:26:00,
2013-11-22 17:31:00,70.7,-34.6,29.81,WSW,247,2.0,7.0,1,0.00,,,0.00,Weather View 32 v70,2013-11-22 22:31:00,
2013-11-22 17:36:00,70.6,-34.7,29.81,WSW,247,1.0,6.0,1,0.00,,,0.00,Weather View 32 v70,2013-11-22 22:36:00,
2013-11-22 17:41:00,70.5,-34.8,29.81,WSW,247,1.0,6.0,1,0.00,,,0.00,Weather View 32 v70,2013-11-22 22:41:00,
2013-11-22 17:46:00,70.3,-34.9,29.81,SW,225,2.0,6.0,1,0.00,,,0.00,Weather View 32 v70,2013-11-22 22:46:00,
2013-11-22 17:51:00,70.2,-34.9,29.81,SW,225,1.0,6.0,1,0.00,,,0.00,Weather View 32 v70,2013-11-22 22:51:00,
2013-11-22 17:56:00,70.1,-35.0,29.81,SW,225,2.0,6.0,1,0.00,,,0.00,Weather View 32 v70,2013-11-22 22:56:00,
2013-11-22 18:01:00,70.2,-34.9,29.81,WSW,247,2.0,6.0,1,0.00,,,0.00,Weather View 32 v70,2013-11-22 23:01:00,
2013-11-22 18:06:00,69.8,-35.2,29.81,WSW,247,2.0,6.0,1,0.00,,,0.00,Weather View 32 v70,2013-11-22 23:06:00,
2013-11-22 18:11:00,69.6,-35.3,29.81,West,270,2.0,6.0,1,0.00,,,0.00,Weather View 32 v70,2013-11-22 23:11:00,
2013-11-22 18:16:00,69.7,-35.2,29.81,West,270,2.0,4.0,1,0.00,,,0.00,Weather View 32 v70,2013-11-22 23:16:00,
2013-11-22 18:21:00,69.2,-35.5,29.81,West,270,2.0,4.0,1,0.00,,,0.00,Weather View 32 v70,2013-11-22 23:21:00,
2013-11-22 18:26:00,69.1,-35.6,29.81,West,270,1.0,4.0,1,0.00,,,0.00,Weather View 32 v70,2013-11-22 23:26:00,
2013-11-22 18:31:00,68.6,-35.9,29.81,West,270,3.0,4.0,1,0.00,,,0.00,Weather View 32 v70,2013-11-22 23:31:00,
2013-11-22 18:36:00,68.4,-36.0,29.81,West,270,2.0,4.0,1,0.00,,,0.00,Weather View 32 v70,2013-11-22 23:36:00,
2013-11-22 18:41:00,68.3,-36.1,29.81,West,270,2.0,4.0,1,0.00,,,0.00,Weather View 32 v70,2013-11-22 23:41:00,
2013-11-22 18:46:00,68.2,-36.1,29.81,West,270,1.0,4.0,1,0.00,,,0.00,Weather View 32 v70,2013-11-22 23:46:00,
2013-11-22 18:51:00,68.0,-36.3,29.81,West,270,2.0,4.0,1,0.00,,,0.00,Weather View 32 v70,2013-11-22 23:51:00,
2013-11-22 18:56:00,67.9,-36.3,29.81,West,270,2.0,4.0,1,0.00,,,0.00,Weather View 32 v70,2013-11-22 23:56:00,
2013-11-22 19:01:00,67.7,-36.4,29.81,West,270,2.0,4.0,1,0.00,,,0.00,Weather View 32 v70,2013-11-23 00:01:00,
2013-11-22 19:06:00,67.5,-36.6,29.81,West,270,1.0,4.0,1,0.00,,,0.00,Weather View 32 v70,2013-11-23 00:06:00,
2013-11-22 19:11:00,67.4,-36.6,29.81,WSW,247,2.0,4.0,1,0.00,,,0.00,Weather View 32 v70,2013-11-23 00:11:00,
2013-11-22 19:16:00,67.3,-36.7,29.81,West,270,3.0,4.0,1,0.00,,,0.00,Weather View 32 v70,2013-11-23 00:16:00,
2013-11-22 19:21:00,67.1,-36.8,29.81,West,270,2.0,4.0,1,0.00,,,0.00,Weather View 32 v70,2013-11-23 00:21:00,
2013-11-22 19:26:00,66.9,-36.9,29.81,West,270,2.0,4.0,1,0.00,,,0.00,Weather View 32 v70,2013-11-23 00:26:00,
2013-11-22 19:31:00,66.9,-36.9,29.81,West,270,2.0,4.0,1,0.00,,,0.00,Weather View 32 v70,2013-11-23 00:31:00,
2013-11-22 19:37:00,66.7,-37.0,29.81,West,270,3.0,4.0,1,0.00,,,0.00,Weather View 32 v70,2013-11-23 00:37:00,
2013-11-22 19:42:00,66.5,-37.2,29.81,WNW,292,3.0,4.0,1,0.00,,,0.00,Weather View 32 v70,2013-11-23 00:42:00,
2013-11-22 19:47:00,66.3,-37.3,29.81,NW,315,1.0,4.0,1,0.00,,,0.00,Weather View 32 v70,2013-11-23 00:47:00,
2013-11-22 19:52:00,66.1,-37.4,29.81,NW,315,1.0,4.0,1,0.00,,,0.00,Weather View 32 v70,2013-11-23 00:52:00,
2013-11-22 19:57:00,65.8,-37.6,29.81,NW,315,1.0,4.0,1,0.00,,,0.00,Weather View 32 v70,2013-11-23 00:57:00,
2013-11-22 20:02:00,65.5,-37.8,29.81,NW,315,2.0,4.0,1,0.00,,,0.00,Weather View 32 v70,2013-11-23 01:02:00,
2013-11-22 20:07:00,65.4,-37.8,29.81,NW,315,1.0,4.0,1,0.00,,,0.00,Weather View 32 v70,2013-11-23 01:07:00,
2013-11-22 20:12:00,65.4,-37.8,29.81,NW,315,2.0,4.0,1,0.00,,,0.00,Weather View 32 v70,2013-11-23 01:12:00,
2013-11-22 20:17:00,65.4,-37.8,29.81,NW,315,2.0,4.0,1,0.00,,,0.00,Weather View 32 v70,2013-11-23 01:17:00,
2013-11-22 20:22:00,65.4,-37.8,29.81,WNW,292,2.0,4.0,1,0.00,,,0.00,Weather View 32 v70,2013-11-23 01:22:00,
2013-11-22 20:27:00,65.5,-37.8,29.81,WNW,292,2.0,4.0,1,0.00,,,0.00,Weather View 32 v70,2013-11-23 01:27:00,
2013-11-22 20:32:00,65.5,-37.8,29.81,WNW,292,0.0,3.0,1,0.00,,,0.00,Weather View 32 v70,2013-11-23 01:32:00,
2013-11-22 20:37:00,65.4,-37.8,29.81,WNW,292,2.0,3.0,1,0.00,,,0.00,Weather View 32 v70,2013-11-23 01:37:00,
2013-11-22 20:42:00,65.3,-37.9,29.81,WNW,292,0.0,3.0,1,0.00,,,0.00,Weather View 32 v70,2013-11-23 01:42:00,
2013-11-22 20:47:00,65.1,-38.0,29.81,WSW,247,1.0,3.0,1,0.00,,,0.00,Weather View 32 v70,2013-11-23 01:47:00,
2013-11-22 20:52:00,64.9,-38.1,29.81,WSW,247,2.0,3.0,1,0.00,,,0.00,Weather View 32 v70,2013-11-23 01:52:00,
2013-11-22 20:57:00,64.8,-38.2,29.81,WSW,247,0.0,3.0,1,0.00,,,0.00,Weather View 32 v70,2013-11-23 01:57:00,
2013-11-22 21:02:00,64.6,-38.3,29.81,WSW,247,0.0,3.0,1,0.00,,,0.00,Weather View 32 v70,2013-11-23 02:02:00,
2013-11-22 21:07:00,64.5,-38.4,29.81,WSW,247,1.0,3.0,1,0.00,,,0.00,Weather View 32 v70,2013-11-23 02:07:00,
2013-11-22 21:12:00,64.3,-38.5,29.81,WNW,292,2.0,3.0,1,0.00,,,0.00,Weather View 32 v70,2013-11-23 02:12:00,
2013-11-22 21:17:00,64.1,-38.6,29.81,WNW,292,1.0,2.0,1,0.00,,,0.00,Weather View 32 v70,2013-11-23 02:17:00,
2013-11-22 21:22:00,63.9,-38.7,29.81,WNW,292,2.0,2.0,1,0.00,,,0.00,Weather View 32 v70,2013-11-23 02:22:00,
2013-11-22 21:27:00,63.7,-38.8,29.81,WNW,292,1.0,2.0,1,0.00,,,0.00,Weather View 32 v70,2013-11-23 02:27:00,
2013-11-22 21:32:00,63.5,-39.0,29.81,WNW,292,1.0,2.0,1,0.00,,,0.00,Weather View 32 v70,2013-11-23 02:32:00,
2013-11-22 21:37:00,63.4,-39.0,29.81,WNW,292,2.0,2.0,1,0.00,,,0.00,Weather View 32 v70,2013-11-23 02:37:00,
2013-11-22 21:42:00,63.3,-39.1,29.81,WNW,292,1.0,2.0,1,0.00,,,0.00,Weather View 32 v70,2013-11-23 02:42:00,
2013-11-22 21:47:00,63.3,-39.1,29.81,WNW,292,2.0,2.0,1,0.00,,,0.00,Weather View 32 v70,2013-11-23 02:47:00,
2013-11-22 21:52:00,63.2,-39.2,29.81,WNW,292,2.0,2.0,1,0.00,,,0.00,Weather View 32 v70,2013-11-23 02:52:00,
2013-11-22 21:57:00,63.1,-39.2,29.80,WNW,292,1.0,2.0,1,0.00,,,0.00,Weather View 32 v70,2013-11-23 02:57:00,
2013-11-22 22:02:00,63.0,-39.3,29.80,WNW,292,1.0,2.0,1,0.00,,,0.00,Weather View 32 v70,2013-11-23 03:02:00,
2013-11-22 22:07:00,63.0,-39.3,29.80,WNW,292,1.0,2.0,1,0.00,,,0.00,Weather View 32 v70,2013-11-23 03:07:00,
2013-11-22 22:12:00,62.9,-39.3,29.79,WNW,292,0.0,2.0,1,0.00,,,0.00,Weather View 32 v70,2013-11-23 03:12:00,
2013-11-22 22:17:00,62.9,-39.3,29.79,West,270,1.0,2.0,1,0.00,,,0.00,Weather View 32 v70,2013-11-23 03:17:00,
2013-11-22 22:23:00,62.9,-39.3,29.79,SW,225,4.0,4.0,1,0.00,,,0.00,Weather View 32 v70,2013-11-23 03:23:00,
2013-11-22 22:28:00,62.9,-39.3,29.79,WSW,247,5.0,7.0,1,0.00,,,0.00,Weather View 32 v70,2013-11-23 03:28:00,
2013-11-22 22:33:00,63.1,-39.2,29.79,West,270,2.0,7.0,1,0.00,,,0.00,Weather View 32 v70,2013-11-23 03:33:00,
2013-11-22 22:38:00,63.2,-39.2,29.78,SW,225,4.0,7.0,1,0.00,,,0.00,Weather View 32 v70,2013-11-23 03:38:00,
2013-11-22 22:43:00,63.4,-39.0,29.78,SW,225,3.0,7.0,1,0.00,,,0.00,Weather View 32 v70,2013-11-23 03:43:00,
2013-11-22 22:48:00,63.5,-39.0,29.78,SW,225,3.0,7.0,1,0.00,,,0.00,Weather View 32 v70,2013-11-23 03:48:00,
2013-11-22 22:53:00,63.6,-38.9,29.77,SW,225,2.0,7.0,1,0.00,,,0.00,Weather View 32 v70,2013-11-23 03:53:00,
2013-11-22 22:58:00,63.6,-38.9,29.77,SW,225,2.0,7.0,1,0.00,,,0.00,Weather View 32 v70,2013-11-23 03:58:00,
2013-11-22 23:03:00,63.7,-38.8,29.77,SW,225,2.0,7.0,1,0.00,,,0.00,Weather View 32 v70,2013-11-23 04:03:00,
2013-11-22 23:08:00,63.7,-38.8,29.77,WSW,247,2.0,7.0,1,0.00,,,0.00,Weather View 32 v70,2013-11-23 04:08:00,
2013-11-22 23:13:00,63.7,-38.8,29.77,SW,225,2.0,7.0,1,0.00,,,0.00,Weather View 32 v70,2013-11-23 04:13:00,
2013-11-22 23:18:00,63.7,-38.8,29.77,West,270,1.0,7.0,1,0.00,,,0.00,Weather View 32 v70,2013-11-23 04:18:00,
2013-11-22 23:23:00,63.6,-38.9,29.77,WNW,292,4.0,7.0,1,0.00,,,0.00,Weather View 32 v70,2013-11-23 04:23:00,
2013-11-22 23:28:00,63.6,-38.9,29.77,NW,315,3.0,6.0,1,0.00,,,0.00,Weather View 32 v70,2013-11-23 04:28:00,
2013-11-22 23:33:00,63.6,-38.9,29.78,WNW,292,2.0,6.0,1,0.00,,,0.00,Weather View 32 v70,2013-11-23 04:33:00,
2013-11-22 23:38:00,63.5,-39.0,29.77,West,270,2.0,6.0,1,0.00,,,0.00,Weather View 32 v70,2013-11-23 04:38:00,
2013-11-22 23:43:00,63.5,-39.0,29.77,SW,225,1.0,6.0,1,0.00,,,0.00,Weather View 32 v70,2013-11-23 04:43:00,
2013-11-22 23:48:00,63.3,-39.1,29.77,South,180,2.0,6.0,1,0.00,,,0.00,Weather View 32 v70,2013-11-23 04:48:00,
2013-11-22 23:53:00,63.2,-39.2,29.77,South,180,1.0,6.0,1,0.00,,,0.00,Weather View 32 v70,2013-11-23 04:53:00,
2013-11-22 23:58:00,63.1,-39.2,29.77,SW,225,3.0,6.0,1,0.00,,,0.00,Weather View 32 v70,2013-11-23 04:58:00,